This demonstration page uses our WeatherBlox Daily Observations layout. Learn more.

Left ArrowRight Arrow

39.92423, -83.80882

Hourly Observations for July 30, 2019

Temp ( °F °C ) Dew Point ( °F °C ) Humidity (%) Winds ( mph kmh ) Pressure ( in mb ) Visibility ( mi km ) Precip ( " mm )
12:56 am 00:56 Mostly Cloudy 70 21.1 69 20.6 97 97 SSW 6 9 29.97 1015 10 16.0934 N/A
1:56 am 01:56 Mostly Cloudy 70 21.1 69 20.6 97 97 WSW 7 11 29.96 1015 10 16.0934 N/A
2:56 am 02:56 Cloudy 70 21.1 68 20 93 93 SW 6 9 29.95 1014 10 16.0934 N/A
3:25 am 03:25 Cloudy 70 21 70 21 100 100 SW 5 7 29.95 1014 10 16.0934 N/A
3:56 am 03:56 Cloudy 71 21.7 69 20.6 94 94 WSW 7 11 29.96 1015 10 16.0934 N/A
4:11 am 04:11 Cloudy with Light Rain 72 22 70 21 94 94 SW 5 7 29.94 1014 10 16.0934 0.001 0.001
4:56 am 04:56 Partly Cloudy 69 20.6 69 20.6 100 100 SW 5 7 29.95 1014 10 16.0934 0.001 0.001
5:03 am 05:03 Mostly Cloudy 70 21 70 21 100 100 WSW 6 9 29.95 1014 10 16.0934 N/A
5:56 am 05:56 Cloudy 70 21.1 70 21.1 100 100 WSW 6 9 29.97 1015 10 16.0934 N/A
6:13 am 06:13 Cloudy 70 21 70 21 100 100 W 10 17 29.97 1015 10 16.0934 N/A
6:56 am 06:56 Cloudy 70 21.1 70 21.1 100 100 W 5 7 29.97 1015 10 16.0934 N/A
7:30 am 07:30 Cloudy 70 21 70 21 100 100 SW 5 7 29.98 1015 10 16.0934 N/A
7:43 am 07:43 Cloudy with Light Rain 70 21 70 21 100 100 SW 6 9 29.98 1015 10 16.0934 0.001 0.001
7:52 am 07:52 Cloudy 70 21 70 21 100 100 SW 3 6 29.98 1015 10 16.0934 0.001 0.001
7:56 am 07:56 Cloudy 70 21.1 70 21.1 100 100 N N/A 29.99 1016 10 16.0934 0.001 0.001
8:21 am 08:21 Cloudy 72 22 70 21 94 94 VRB 3 6 29.98 1015 10 16.0934 N/A
8:52 am 08:52 Mostly Cloudy 72 22 70 21 94 94 SSW 7 11 29.99 1016 10 16.0934 N/A
8:56 am 08:56 Partly Cloudy 72 22.2 69 20.6 91 91 SSW 7 11 30.02 1017 10 16.0934 N/A
9:56 am 09:56 Cloudy 74 23.3 69 20.6 85 85 SW 8 13 30.02 1017 10 16.0934 N/A
10:56 am 10:56 Cloudy 76 24.4 70 21.1 82 82 SSW 5 7 30.03 1017 10 16.0934 N/A
11:56 am 11:56 Cloudy 76 24.4 70 21.1 82 82 W 10 17 30.03 1017 10 16.0934 N/A
12:56 pm 12:56 Partly Cloudy 79 26.1 71 21.7 77 77 VRB 5 7 30.02 1017 10 16.0934 N/A
3:56 pm 15:56 Sunny 83 28.3 69 20.6 63 63 VRB 6 9 29.96 1015 10 16.0934 N/A
4:56 pm 16:56 Mostly Cloudy 80 26.7 70 21.1 71 71 VRB 5 7 29.97 1015 10 16.0934 N/A
5:56 pm 17:56 Cloudy with Light Rain 78 25.6 73 22.8 85 85 S 5 7 29.98 1015 10 16.0934 0.01 0.254
6:54 pm 18:54 Partly Cloudy with Nearby Thunderstorms 77 25 72 22 83 83 SSW 5 7 29.95 1014 10 16.0934 0.001 0.001
6:56 pm 18:56 Partly Cloudy with Nearby Thunderstorms 77 25 72 22.2 85 85 SSW 5 7 29.98 1015 10 16.0934 0.001 0.001
7:09 pm 19:09 Mostly Cloudy with Light Rain 75 24 72 22 89 89 W 9 15 29.96 1014 10 16.0934 0.001 0.001
7:56 pm 19:56 Mostly Cloudy 74 23.3 72 22.2 94 94 SSW 5 7 29.99 1016 10 16.0934 0.001 0.001
8:56 pm 20:56 Mostly Cloudy 73 22.8 72 22.2 96 96 SW 5 7 30 1016 10 16.0934 N/A
9:56 pm 21:56 Clear 69 20.6 69 20.6 100 100 SSE 3 6 30.03 1017 10 16.0934 N/A
10:56 pm 22:56 Clear 68 20 68 20 100 100 N N/A 30.02 1017 8 12.87472 N/A
11:56 pm 23:56 Mostly Clear 69 20.6 69 20.6 100 100 WSW 5 7 30.04 1017 9 14.48406 N/A

Powered by AerisWeather